Terminal Aerodrome Forecast
Issued by NWS

Home | Current Version | Previous Version | Text Only | Print | Product List | Glossary On
Versions: 1 2 3 4 5 6 7 8 9 10 11 12 13
000
FTUS43 KFGF 241700
TAFTVF
TAF
KTVF 241720Z 2418/2518 23011KT P6SM SCT250
     FM241900 24013G20KT P6SM SCT250
     FM242300 28011KT P6SM SCT250
      AMD LTD TO CLD VIS AND WIND=

USA.gov is the U.S. government's official web portal to all federal, state and local government web resources and services.